2024/01/25 00:00:00,19.5,-4.0
2024/01/25 00:10:00,20.4,-4.3
2024/01/25 00:20:00,21.4,-4.4
2024/01/25 00:30:00,22.0,-4.3
2024/01/25 00:40:00,23.2,-4.4
2024/01/25 00:50:00,25.4,-4.3
2024/01/25 01:00:00,27.5,-4.3
2024/01/25 01:10:00,28.2,-4.6
2024/01/25 01:20:00,28.7,-4.2
2024/01/25 01:30:00,29.6,-3.9
2024/01/25 01:40:00,30.3,-4.2
2024/01/25 01:50:00,30.5,-4.0
2024/01/25 02:00:00,30.5,-4.1
2024/01/25 02:10:00,30.3,-4.5
2024/01/25 02:20:00,29.8,-4.5
2024/01/25 02:30:00,29.6,-4.6
2024/01/25 02:40:00,29.5,-4.5
2024/01/25 02:50:00,29.2,-4.6
2024/01/25 03:00:00,29.0,-4.4
2024/01/25 03:10:00,28.8,-4.3
2024/01/25 03:20:00,28.8,-4.4
2024/01/25 03:30:00,29.1,-4.4
2024/01/25 03:40:00,30.1,-4.5
2024/01/25 03:50:00,30.8,-4.5
2024/01/25 04:00:00,30.7,-4.4
2024/01/25 04:10:00,30.9,-4.3
2024/01/25 04:20:00,30.9,-3.9
2024/01/25 04:30:00,31.1,-4.3
2024/01/25 04:40:00,31.3,-4.4
2024/01/25 04:50:00,31.7,-3.9
2024/01/25 05:00:00,32.0,-4.1
2024/01/25 05:10:00,32.5,-4.6
2024/01/25 05:20:00,32.7,-4.2
2024/01/25 05:30:00,32.6,-4.4
2024/01/25 05:40:00,32.4,-4.2
2024/01/25 05:50:00,32.2,-4.2
2024/01/25 06:00:00,32.1,-4.0
2024/01/25 06:10:00,32.0,-3.8
2024/01/25 06:20:00,32.1,-4.0
2024/01/25 06:30:00,32.1,-3.8
2024/01/25 06:40:00,31.8,-4.2
2024/01/25 06:50:00,31.8,-4.0
2024/01/25 07:00:00,31.6,-3.9
2024/01/25 07:10:00,31.5,-3.8
2024/01/25 07:20:00,31.4,-3.8
2024/01/25 07:30:00,31.3,-3.8
2024/01/25 07:40:00,31.1,-3.7
2024/01/25 07:50:00,31.4,-3.6
2024/01/25 08:00:00,31.5,-3.4
2024/01/25 08:10:00,31.4,-3.5
2024/01/25 08:20:00,31.3,-3.0
2024/01/25 08:30:00,31.8,-3.4
2024/01/25 08:40:00,32.2,-3.4
2024/01/25 08:50:00,32.1,-3.3
2024/01/25 09:00:00,31.9,-3.0
2024/01/25 09:10:00,31.6,-2.9
2024/01/25 09:20:00,31.7,-3.0
2024/01/25 09:30:00,32.0,-3.1
2024/01/25 09:40:00,32.2,-2.6
2024/01/25 09:50:00,32.2,-2.7
2024/01/25 10:00:00,31.7,-2.0
2024/01/25 10:10:00,31.7,-2.3
2024/01/25 10:20:00,31.6,-2.0
2024/01/25 10:30:00,31.5,-1.8
2024/01/25 10:40:00,31.3,-1.4
2024/01/25 10:50:00,31.1,-1.3
2024/01/25 11:00:00,31.0,-1.1
2024/01/25 11:10:00,30.8,-1.2
2024/01/25 11:20:00,30.7,-0.9
2024/01/25 11:30:00,30.5,-1.2
2024/01/25 11:40:00,30.5,-1.0
2024/01/25 11:50:00,30.6,-1.0
2024/01/25 12:00:00,30.9,-0.4
2024/01/25 12:10:00,30.7,-1.1
2024/01/25 12:20:00,30.5,-0.9
2024/01/25 12:30:00,30.5,-1.1
2024/01/25 12:40:00,30.4,-1.6
2024/01/25 12:50:00,30.4,-1.1
2024/01/25 13:00:00,30.4,-1.2
2024/01/25 13:10:00,30.2,-1.4
2024/01/25 13:20:00,30.4,-0.7
2024/01/25 13:30:00,30.4,-0.4
2024/01/25 13:40:00,30.1,-1.1
2024/01/25 13:50:00,29.9,-1.1
2024/01/25 14:00:00,29.9,-0.7
2024/01/25 14:10:00,29.8,-0.9
2024/01/25 14:20:00,29.5,-1.1
2024/01/25 14:30:00,29.5,-1.1
2024/01/25 14:40:00,30.0,-1.1
2024/01/25 14:50:00,30.1,-1.4
2024/01/25 15:00:00,30.0,-1.2
2024/01/25 15:10:00,29.8,-0.8
2024/01/25 15:20:00,29.8,-1.2
2024/01/25 15:30:00,29.9,-1.5
2024/01/25 15:40:00,29.9,-1.4
2024/01/25 15:50:00,29.7,-1.7
2024/01/25 16:00:00,29.6,-1.8
2024/01/25 16:10:00,29.8,-1.5
2024/01/25 16:20:00,30.1,-1.3
2024/01/25 16:30:00,30.0,-1.6
2024/01/25 16:40:00,30.0,-1.8
2024/01/25 16:50:00,30.0,-1.9
2024/01/25 17:00:00,30.3,-1.8
2024/01/25 17:10:00,30.3,-1.9
2024/01/25 17:20:00,30.1,-1.9
2024/01/25 17:30:00,30.0,-2.1
2024/01/25 17:40:00,30.0,-2.1
2024/01/25 17:50:00,30.0,-2.0
2024/01/25 18:00:00,29.8,-2.1
2024/01/25 18:10:00,29.7,-2.1
2024/01/25 18:20:00,29.7,-2.2
2024/01/25 18:30:00,29.6,-2.2
2024/01/25 18:40:00,29.5,-2.2
2024/01/25 18:50:00,29.6,-2.4
2024/01/25 19:00:00,29.6,-2.1
2024/01/25 19:10:00,29.6,-2.5
2024/01/25 19:20:00,29.6,-2.2
2024/01/25 19:30:00,29.8,-2.4
2024/01/25 19:40:00,30.1,-2.5
2024/01/25 19:50:00,30.0,-2.4
2024/01/25 20:00:00,29.9,-2.7
2024/01/25 20:10:00,29.8,-2.5
2024/01/25 20:20:00,29.7,-2.5
2024/01/25 20:30:00,29.6,-2.5
2024/01/25 20:40:00,29.6,-2.5
2024/01/25 20:50:00,29.5,-2.6
2024/01/25 21:00:00,29.4,-2.4
2024/01/25 21:10:00,29.2,-2.3
2024/01/25 21:20:00,29.1,-2.2
2024/01/25 21:30:00,29.0,-2.2
2024/01/25 21:40:00,28.9,-2.1
2024/01/25 21:50:00,28.8,-2.3
2024/01/25 22:00:00,29.1,-2.0
2024/01/25 22:10:00,29.2,-2.5
2024/01/25 22:20:00,29.2,-2.3
2024/01/25 22:30:00,29.2,-2.3
2024/01/25 22:40:00,29.0,-2.3
2024/01/25 22:50:00,28.9,-2.3
2024/01/25 23:00:00,28.7,-2.4
2024/01/25 23:10:00,28.7,-2.4
2024/01/25 23:20:00,28.6,-2.7
2024/01/25 23:30:00,28.5,-2.7
2024/01/25 23:40:00,28.4,-2.7
2024/01/25 23:50:00,28.4,-2.5
